Regional Weather Roundup
Issued by NWS

Home | Current Version | Previous Version | Text Only | Print | Product List | Glossary Off
Versions: 1 2 3 4 5 6 7 8 9 10 11 12 13 14 15 16 17 18 19 20 21 22 23 24 25 26 27

000
ASUS45 KCYS 302010
RWRWY

WYOMING REGIONAL WEATHER ROUNDUP
NATIONAL WEATHER SERVICE CHEYENNE WY
200 PM MDT SAT JUL 30 2016

NOTE:  "FAIR" INDICATES FEW OR NO CLOUDS BELOW 12,000 FEET
WITH NO SIGNIFICANT WEATHER AND/OR OBSTRUCTIONS TO VISIBILITY.

WYZ001-302100-
YELLOWSTONE NATIONAL PARK

CITY           SKY/WX    TMP DP  RH WIND       PRES   REMARKS
LK YELLOWSTONE   N/A     79  30  16 W12G18    30.18S
W YELLOWSTONE  NOT AVBL

$$
WYZ002>013-054>058-071-098>099-302100-
NORTHERN WYOMING

CITY           SKY/WX    TMP DP  RH WIND       PRES   REMARKS
JACKSON        MOSUNNY   82  34  17 SW12G23   30.08S
CODY           FAIR      88  46  23 NE6       29.90F
GREYBULL       FAIR      94  40  15 SE5       29.81F HX  90
WORLAND        FAIR      95  36  12 VRB3      29.83F HX  90
SHERIDAN       FAIR      96  45  17 NE7       29.82F HX  92
BUFFALO        FAIR      94  45  18 SE15G24   29.89F HX  90
GILLETTE       FAIR      92  44  19 S15G25    29.89F
HULETT         FAIR      90  36  14 W8        29.92F
NEWCASTLE      FAIR      86  45  23 SE7       29.94F

$$
WYZ014>020-022>026-101>103-302100-
CENTRAL WYOMING

CITY           SKY/WX    TMP DP  RH WIND       PRES   REMARKS
BIG PINEY      HVY RAIN  61  50  67 NW29G40   30.22R
PINEDALE       FAIR      82  32  16 W15G23    30.17S
DUBOIS         FAIR      81  28  15 N18G29    30.10F
LANDER         FAIR      91  35  13 W20G26    29.97F
RIVERTON       FAIR      90  38  16 SW8       29.96F
CASPER         FAIR      91  37  15 SW10      29.96F
DOUGLAS        FAIR      91  48  22 SE8G20    29.96F

$$
WYZ021-027>030-104>119-302100-
SOUTHERN WYOMING

CITY           SKY/WX    TMP DP  RH WIND       PRES   REMARKS
EVANSTON       PTSUNNY   81  39  22 N16       30.17F
KEMMERER         N/A     79  32  18 NW20G28   30.21R
FORT BRIDGER   CLOUDY    78  39  25 NW15G29   30.20R
ROCK SPRINGS   FAIR      90  30  11 SW14G24   30.12F
DIXON          FAIR      90  33  13 W17       30.14F
RAWLINS        FAIR      85  36  17 W13       30.12F
SARATOGA       FAIR      88  32  13 W10G23    30.15F
LARAMIE        FAIR      82  38  20 NW14G20   30.15F
CHEYENNE       FAIR      84  51  31 E9G16     30.08F
TORRINGTON     FAIR      87  63  44 SE12G21   29.94F
PINE BLUFFS    FAIR      86  46  25 MISG      30.03F

$$




USA.gov is the U.S. government's official web portal to all federal, state and local government web resources and services.